Weather Roundup
Issued by NWS Chicago, IL

Home | Current Version | Previous Version | Text Only | Print | Product List | Glossary On
Versions: 1 2 3 4 5 6 7 8 9 10 11 12 13 14 15 16 17 18 19 20 21 22 23 24 25 26 27 28 29 30 31 32 33 34 35 36 37 38 39 40 41 42 43 44 45 46 47 48 49 50
000
NZUS59 KLOT 011258
HRRLOT

CHICAGO AREA WEATHER ROUNDUP
NATIONAL WEATHER SERVICE CHICAGO/ROMEOVILLE IL
800 AM CDT FRI AUG 01 2014

NOTE: "FAIR" INDICATES FEW OR NO CLOUDS BELOW 12,000 FEET WITH NO
SIGNIFICANT WEATHER AND/OR OBSTRUCTIONS TO VISIBILITY.

* THESE STATIONS ARE NOT UNDER NWS QUALITY CONTROL. THEY ALSO MAY NOT
  REPORT WEATHER SUCH AS PRECIPITATION OR FOG.

ILZ005-006-012>014-019>023-011400-
NORTHEAST ILLINOIS

CITY           SKY/WX    TMP DP  RH WIND       PRES   REMARKS
OHARE          MOSUNNY   70  58  65 SW12      30.09R
MIDWAY         PTSUNNY   73  59  61 W10       30.09R
AURORA         MOSUNNY   67  58  72 SE3       30.09F
WAUKEGAN       SUNNY     68  59  73 VRB3      30.07R
DUPAGE AIRPORT MOSUNNY   68  61  78 S6        30.10R
WHEELING       SUNNY     71  61  70 SW6       30.10R
NORTHERLY IS     N/A     73  59  61 SW5         N/A
$$

WIZ051-052-058>065-066-070>072-011400-
SOUTHEAST WISCONSIN

CITY           SKY/WX    TMP DP  RH WIND       PRES   REMARKS
MILWAUKEE      MOSUNNY   69  58  67 W5        30.07R
KENOSHA*       SUNNY     66  61  84 W6        30.08S
RACINE*        SUNNY     68  59  73 W6        30.09R
WAUKESHA       SUNNY     64  59  82 CALM      30.09R
$$

INZ001>003-010>013-019-020-011400-
NORTHWEST INDIANA

CITY           SKY/WX    TMP DP  RH WIND       PRES   REMARKS
GARY*          PTSUNNY   70  64  83 S3        30.10R
MICHIGAN CITY* NOT AVBL
RENSSELAER*    NOT AVBL
VALPARAISO     MOSUNNY   67  61  81 SW7       30.11R
$$

LMZ740>746-011400-
SOUTHERN LAKE MICHIGAN

STATION/POSITION TIME  SKY/WX   TEMP WIND        PRES    VSBY
                                AIR  DIR/SP/G
                 (UTC)          (F)  (DEG/KT/KT) (MB)    (MI)
HARRISON CRIB    1200            70  250/ 10/ 11   N/A
BURNHAM HARBOR   1200            72  250/  6/  8   N/A
CALUMET HARBOR   1200            69  210/  2/  4 1017.4R
BURNS HARBOR     1200            66  190/  7/  8   N/A
MICHIGAN CITY    1200            67  170/  5/  6   N/A
$$

ABBREVIATIONS USED IN REMARKS
   TC - TEMPERATURE IN CELSIUS
  WCI - WIND CHILL INDEX
   HX - HEAT INDEX
  VSB - VISIBILITY
$$


USA.gov is the U.S. government's official web portal to all federal, state and local government web resources and services.